Homer, AK

1:57 PM AKST on February 19, 2018 (GMT -0900)
Homer

Weather History for PAHO - April, 2014

Change the Weather History Date:

Sunday, April 6, 2014

  Actual Average Record
Temperature  
Mean Temperature 40 °F -  
Max Temperature 48 °F 40 °F 52 °F (1940)
Min Temperature 33 °F 26 °F 6 °F (1956)
Degree Days  
Heating Degree Days 26    
Moisture  
Dew Point 29 °F    
Average Humidity 65    
Maximum Humidity 82    
Minimum Humidity 46    
Precipitation  
Precipitation 0.00 in - - ()
Sea Level Pressure  
Sea Level Pressure 29.54 in    
Wind  
Wind Speed 2 mph (WSW)    
Max Wind Speed 9 mph    
Max Gust Speed -    
Visibility 10 miles    
Events Rain    
Averages and records for this station are not official NWS values.
T = Trace of Precipitation, MM = Missing Value Source: NWS Daily Summary

Daily Weather History Graph

Daily Weather History Graph

Search for Another Location

Airport or City:

Trip Planner

Search our weather history database for the weather conditions in past years. The results will help you decide how hot, cold, wet, or windy it might be!

Date:

Astronomy

Apr. 06, 2014 Rise Set
Actual Time 7:16 AM AKDT 9:01 PM AKDT
Civil Twilight 6:32 AM AKDT 9:45 PM AKDT
Nautical Twilight 5:37 AM AKDT 10:41 PM AKDT
Astronomical Twilight 4:31 AM AKDT 11:48 PM AKDT
Moon 11:38 AM AKDT (4/6) 3:53 AM AKDT (4/6)
Length of Visible Light 15h 12m
Length of Day
13h 45m
Waxing Crescent, 45% of the Moon is Illuminated
Apr 6
Waxing Crescent
Apr 7
First Quarter
Apr 14
Full
Apr 21
Last Quarter
Apr 28
New

Hourly Weather History & Observations

Time (AKDT) Temp. Windchill Dew Point Humidity Pressure Visibility Wind Dir Wind Speed Gust Speed Precip Events Conditions
12:53 AM 37.0 °F - 32.0 °F 82% 29.46 in 10.0 mi Calm Calm - N/A   Overcast
1:53 AM 35.1 °F - 30.0 °F 82% 29.48 in 10.0 mi Calm Calm - N/A   Overcast
2:53 AM 39.9 °F 37.8 °F 30.0 °F 68% 29.49 in 10.0 mi Variable 3.5 mph - N/A   Clear
3:53 AM 35.1 °F - 27.0 °F 72% 29.49 in 10.0 mi Calm Calm - N/A   Scattered Clouds
4:53 AM 33.1 °F - 27.0 °F 78% 29.50 in 10.0 mi Calm Calm - N/A   Scattered Clouds
5:53 AM 34.0 °F 31.0 °F 27.0 °F 75% 29.51 in 10.0 mi North 3.5 mph - N/A   Clear
6:53 AM 35.1 °F - 27.0 °F 72% 29.52 in 10.0 mi Calm Calm - N/A   Overcast
7:53 AM 39.9 °F 35.8 °F 28.0 °F 63% 29.53 in 10.0 mi SE 5.8 mph - N/A   Mostly Cloudy
8:53 AM 41.0 °F 39.0 °F 28.9 °F 62% 29.54 in 10.0 mi SE 3.5 mph - N/A   Scattered Clouds
9:53 AM 42.1 °F 40.2 °F 30.0 °F 62% 29.55 in 10.0 mi NE 3.5 mph - N/A   Scattered Clouds
10:53 AM 42.1 °F - 30.9 °F 65% 29.55 in 10.0 mi Calm Calm - N/A   Scattered Clouds
11:53 AM 45.0 °F - 26.1 °F 48% 29.57 in 10.0 mi Calm Calm - N/A   Scattered Clouds
12:53 PM 46.9 °F - 27.0 °F 46% 29.57 in 10.0 mi South 3.5 mph - 0.00 in Rain Light Rain
1:53 PM 46.9 °F - 28.9 °F 50% 29.57 in 10.0 mi Variable 5.8 mph - 0.00 in   Scattered Clouds
2:53 PM 46.9 °F - 28.9 °F 50% 29.57 in 10.0 mi WSW 8.1 mph - N/A   Mostly Cloudy
3:53 PM 46.0 °F 41.9 °F 30.9 °F 56% 29.58 in 10.0 mi West 8.1 mph - N/A   Scattered Clouds
4:53 PM 46.0 °F 42.5 °F 30.9 °F 56% 29.57 in 10.0 mi West 6.9 mph - N/A   Overcast
5:53 PM 44.1 °F 39.0 °F 30.9 °F 60% 29.57 in 10.0 mi West 9.2 mph - N/A   Mostly Cloudy
6:53 PM 43.0 °F 39.5 °F 30.9 °F 62% 29.56 in 10.0 mi West 5.8 mph - N/A   Overcast
7:53 PM 42.1 °F 39.2 °F 30.9 °F 65% 29.56 in 10.0 mi West 4.6 mph - N/A   Overcast
8:53 PM 39.9 °F - 30.0 °F 68% 29.56 in 10.0 mi Calm Calm - N/A   Scattered Clouds
9:53 PM 39.0 °F - 30.0 °F 70% 29.56 in 10.0 mi Calm Calm - N/A   Clear
10:53 PM 37.0 °F - 28.9 °F 73% 29.56 in 10.0 mi Calm Calm - N/A   Mostly Cloudy
11:53 PM 33.1 °F - 27.0 °F 78% 29.55 in 10.0 mi Calm Calm - N/A   Partly Cloudy